Hourly Data Report for July 26, 2016

TORONTO CITY
ONTARIO

43°40'00.000" N
79°24'00.000" W
112.50 m
6158355
71508
XTO

Download Data

Hourly Data (July 2016)
Hourly Data Report for July 26, 2016
TIME
LST
Temp Definition
°C
Dew Point Definition
°C
Rel Hum Definition
%
Precip. Amount Definition
mm

Wind Dir Definition
10's deg

Wind Spd Definition
km/h
Visibility Definition
km
Stn Press Definition
kPa
Hmdx Definition


Wind Chill Definition


Weather Definition


00:00 23.0 15.2 61 0.0 LegendMM LegendMM   99.91 27   LegendNANA
01:00 22.1 14.9 64 0.0 LegendMM LegendMM   99.93 26   LegendNANA
02:00 21.1 14.8 67 0.0 LegendMM LegendMM   99.96 25   LegendNANA
03:00 20.3 14.5 69 0.0 LegendMM LegendMM   100.00     LegendNANA
04:00 19.6 14.5 73 0.0 LegendMM LegendMM   100.04     LegendNANA
05:00 19.2 14.4 74 0.0 LegendMM LegendMM   100.09     LegendNANA
06:00 19.4 14.6 74 0.0 LegendMM LegendMM   100.15     LegendNANA
07:00 21.0 15.2 70 0.0 LegendMM LegendMM   100.19 25   LegendNANA
08:00 22.7 15.9 66 0.0 LegendMM LegendMM   100.22 27   LegendNANA
09:00 24.1 15.3 58 0.0 LegendMM LegendMM   100.23 28   LegendNANA
10:00 26.1 16.1 54 0.0 LegendMM LegendMM   100.24 31   LegendNANA
11:00 26.5 15.8 52 0.0 LegendMM LegendMM   100.26 31   LegendNANA
12:00 27.5 16.3 50 0.0 LegendMM LegendMM   100.22 32   LegendNANA
13:00 27.2 15.7 49 0.0 LegendMM LegendMM   100.21 32   LegendNANA
14:00 26.3 15.0 50 0.0 LegendMM LegendMM   100.17 30   LegendNANA
15:00 28.2 14.7 44 0.0 LegendMM LegendMM   100.10 32   LegendNANA
16:00 28.6 14.7 43 0.0 LegendMM LegendMM   100.06 32   LegendNANA
17:00 27.8 14.1 43 0.0 LegendMM LegendMM   100.05 31   LegendNANA
18:00 26.9 14.5 47 0.0 LegendMM LegendMM   100.04 31   LegendNANA
19:00 28.2 13.0 39 0.0 LegendMM LegendMM   100.04 31   LegendNANA
20:00 27.1 13.9 44 0.0 LegendMM LegendMM   100.05 30   LegendNANA
21:00 25.4 14.6 51 0.0 LegendMM LegendMM   100.10 29   LegendNANA
22:00 23.8 15.1 58 0.0 LegendMM LegendMM   100.08 28   LegendNANA
23:00 22.7 15.3 63 0.0 LegendMM LegendMM   100.12 27   LegendNANA

Notes on Data Quality.

Legend

  • E = Estimated
  • M = Missing
  • NA = Not Available*
  • [empty] = Indicates an unobserved value
Date modified: